STARLINK-35963, 66585

Orbit data source: Space-Track

STARLINK-35963, 66585 is a payload satellite owned by SpaceX/Seattle (US) in LEO that was launched on Fri, 21 Nov 2025 UTC via an FALCON 9 launch vehicle from the Air Force Eastern Test Range (AFETR). Payload-class satellites include a variety of spacecraft equipped with specific instruments for various scientific and technological missions. These include communications satellites like Starlink; space stations such as the ISS; scientific satellites like the Hubble; Earth observation satellites from companies like Planet Labs, Umbra, and HawkEye 360; GPS; miniature CubeSats for education and research; and military/defense satellites.

Loading next visibility...
Identifier
66585, 2025-268AE
Orbit
LEO
Country
Flag of USUS
Related business
Manufacturer
SpaceX/Seattle
Mission
Operational Commercial Communications
Bus & Motor
STARLINK V2MO, Unknown motor
Mass
575 kg wet, ~530 kg dry
Launch date (UTC)
2025-11-21 (7 months ago)
Launch vehicle
FALCON 9
Launch site
Air Force Eastern Test Range (AFETR)
Object type
Payload
Rocket body
Debris
Shape & HBR
Box + 2 Pan, 17.7 m
Radar Cross Section
36.964 m², Large (>1 m²)

Expand to show TLE details & history
Last TLE update: 22 hours ago

TLE from 22 hours ago
0 STARLINK-35963
1 66585U 25268AE  26170.94103742  .00011183  00000-0  41512-3 0  9999
2 66585  43.0014 129.9554 0001176 247.5533 112.5194 15.27592566 33594
Epoch: 2026-06-19T22:35Z
TLE epoch observation values (Epoch: 2026-06-19T22:35:05.633Z)
Latitude
-0.00001°
Longitude
-116.98088°
Altitude
483.096 km
Speed
7.626 km/s
True Right ascension
08h 39m 49s
True Declination
0° 00' 00"
Sunlit
Object was in daylight at epoch
Visualization orbit readout
Latitude
Unknown
Longitude
Unknown
Altitude
Unknown
Speed
Unknown
Apparent Right ascension
Unknown
Apparent Declination
Unknown
Sunlit
N/A
Visualization observer readout
Local Sidereal Time
07:17:53
Azimuth
Unknown
Elevation
Unknown
Doppler factor
Unknown
Orbital elements
Apogee altitude
485.764 km
Perigee altitude
484.149 km
Semi-major axis
6,863.093 km
Eccentricity
0.00012
Inclination
43.0014°
RAAN
129.9554°
Arg. of periapsis
247.5533°
True anomaly
112.53185°
Mean anomaly
112.5194°
Eccentric anomaly
112.52562°
Mean motion
3.81736 °/min
Orbital period
94.31 mins
BSTAR
0.00041512
Loading maneuver chart data...
Computing Atmospheric mass density...
Loading historical data...
Loading historical data...
Loading historical data...
Loading historical data...
Loading historical data...
Loading historical data...
Loading historical data...

Documentation

Showing up to 5 results
|